Manhattan, KS

4:53 PM CST on February 22, 2017 (GMT -0600)
Manhattan Regional

Weather History for KMHK - July, 2013

Change the Weather History Date:

Monday, July 29, 2013

  Actual Average Record
Temperature  
Mean Temperature 67 °F 79 °F  
Max Temperature 70 °F 92 °F 107 °F (2012)
Min Temperature 63 °F 67 °F 57 °F (2005)
Degree Days  
Heating Degree Days 0 0  
Month to date heating degree days 3 0  
Since 1 June heating degree days 12 11  
Since 1 July heating degree days 3 0  
Cooling Degree Days 2 14  
Month to date cooling degree days 373 407  
Year to date cooling degree days 827 777  
Since 1 June cooling degree days 691 677  
Growing Degree Days 16 (Base 50)    
Moisture  
Dew Point 65 °F    
Average Humidity 100    
Maximum Humidity 100    
Minimum Humidity 100    
Precipitation  
Precipitation 2.08 in 0.11 in 2.08 in (2013)
Month to date precipitation 4.33 3.74  
Year to date precipitation 17.12 20.03  
Sea Level Pressure  
Sea Level Pressure 29.99 in    
Wind  
Wind Speed 6 mph (ENE)    
Max Wind Speed 13 mph    
Max Gust Speed 18 mph    
Visibility 6 miles    
Events Rain , Thunderstorm    
T = Trace of Precipitation, MM = Missing Value Source: NWS Daily Summary

Daily Weather History Graph

Daily Weather History Graph

Search for Another Location

Airport or City:

Trip Planner

Search our weather history database for the weather conditions in past years. The results will help you decide how hot, cold, wet, or windy it might be!

Date:

Astronomy

Jul. 29, 2013 Rise Set
Actual Time 6:24 AM CDT 8:41 PM CDT
Civil Twilight 5:54 AM CDT 9:11 PM CDT
Nautical Twilight 5:17 AM CDT 9:47 PM CDT
Astronomical Twilight 4:36 AM CDT 10:28 PM CDT
Moon 12:07 AM CDT (7/29) 2:03 PM CDT (7/29)
Length of Visible Light 15h 16m
Length of Day
14h 16m
Waning Gibbous, 50% of the Moon is Illuminated
Jul 29
Waning Gibbous
Jul 29
Last Quarter
Aug 6
New
Aug 14
First Quarter
Aug 20
Full

Hourly Weather History & Observations

Time (CDT) Temp. Dew Point Humidity Pressure Visibility Wind Dir Wind Speed Gust Speed Precip Events Conditions
12:52 AM 63.0 °F 63.0 °F 100% 30.02 in 5.0 mi ESE 5.8 mph - 0.10 in Rain Light Rain
1:52 AM 64.0 °F 64.0 °F 100% 30.02 in 5.0 mi ENE 6.9 mph - 0.07 in Rain Rain
2:36 AM 62.6 °F 62.6 °F 100% 30.02 in 4.0 mi East 6.9 mph - 0.17 in Rain Heavy Rain
2:52 AM 63.0 °F 63.0 °F 100% 30.01 in 5.0 mi East 10.4 mph - 0.20 in Rain Rain
3:52 AM 63.0 °F 63.0 °F 100% 30.02 in 8.0 mi Calm Calm - 0.16 in Rain Light Rain
4:34 AM 64.4 °F 64.4 °F 100% 30.04 in 10.0 mi Calm Calm - 0.00 in   Overcast
4:52 AM 64.0 °F 64.0 °F 100% 30.02 in 10.0 mi East 3.5 mph - 0.01 in Rain Light Rain
5:04 AM 64.4 °F 64.4 °F 100% 30.04 in 6.0 mi Calm Calm - 0.01 in Rain Light Rain
5:23 AM 62.6 °F 62.6 °F 100% 30.03 in 6.0 mi East 4.6 mph - 0.05 in Rain Light Rain
5:52 AM 63.0 °F 63.0 °F 100% 30.01 in 10.0 mi ESE 9.2 mph - 0.06 in   Overcast
6:52 AM 64.0 °F 64.0 °F 100% 30.01 in 6.0 mi ESE 8.1 mph - 0.04 in Rain Rain
7:33 AM 62.6 °F 62.6 °F 100% 30.03 in 1.8 mi ESE 8.1 mph - 0.14 in Rain Heavy Rain
7:52 AM 63.0 °F 63.0 °F 100% 30.02 in 2.0 mi East 9.2 mph 16.1 mph 0.39 in Rain Heavy Rain
8:01 AM 62.6 °F 62.6 °F 100% 30.02 in 1.2 mi East 11.5 mph 18.4 mph 0.07 in Rain Heavy Rain
8:08 AM 62.6 °F 62.6 °F 100% 30.02 in 2.0 mi Variable 4.6 mph 17.3 mph 0.08 in Rain Rain
8:14 AM 64.4 °F 64.4 °F 100% 30.02 in 4.0 mi Calm Calm - 0.09 in Rain Light Rain
8:29 AM 62.6 °F 62.6 °F 100% 30.03 in 4.0 mi Variable 3.5 mph - 0.11 in Rain Rain
8:39 AM 64.4 °F 64.4 °F 100% 30.03 in 4.0 mi East 4.6 mph - 0.13 in Rain Rain
8:49 AM 64.4 °F 64.4 °F 100% 30.02 in 4.0 mi Variable 4.6 mph - 0.14 in Rain Light Rain
8:52 AM 64.0 °F 64.0 °F 100% 30.01 in 5.0 mi NE 3.5 mph - 0.14 in Rain Light Rain
9:21 AM 64.4 °F 64.4 °F 100% 30.02 in 10.0 mi East 5.8 mph - 0.00 in Rain Light Rain
9:28 AM 64.4 °F 64.4 °F 100% 30.01 in 10.0 mi East 5.8 mph - 0.00 in   Overcast
9:52 AM 64.9 °F 64.9 °F 100% 29.99 in 10.0 mi East 8.1 mph - 0.00 in   Overcast
10:16 AM 64.4 °F 64.4 °F 100% 30.00 in 6.0 mi NNE 3.5 mph - 0.02 in Rain Light Rain
10:30 AM 64.4 °F 64.4 °F 100% 30.01 in 3.0 mi North 3.5 mph - 0.05 in Rain Rain
10:52 AM 64.9 °F 64.9 °F 100% 29.99 in 10.0 mi East 4.6 mph - 0.05 in   Overcast
11:36 AM 68.0 °F 66.2 °F 94% 30.00 in 10.0 mi ENE 5.8 mph - N/A   Mostly Cloudy
11:52 AM 68.0 °F 68.0 °F 100% 29.99 in 10.0 mi East 4.6 mph - N/A   Overcast
12:52 PM 66.0 °F 66.0 °F 100% 29.98 in 7.0 mi NE 5.8 mph - 0.03 in Rain Light Rain
1:27 PM 66.2 °F 66.2 °F 100% 29.99 in 8.0 mi ENE 8.1 mph - 0.01 in Rain Light Rain
1:52 PM 66.0 °F 66.0 °F 100% 29.99 in 6.0 mi ENE 8.1 mph - 0.03 in Rain Light Rain
2:19 PM 66.2 °F 66.2 °F 100% 29.99 in 4.0 mi ENE 9.2 mph - 0.04 in Rain Light Rain
2:25 PM 66.2 °F 66.2 °F 100% 29.99 in 6.0 mi ENE 9.2 mph - 0.05 in Rain , Thunderstorm Light Rain
2:39 PM 66.2 °F 66.2 °F 100% 29.98 in 2.5 mi ENE 9.2 mph - 0.07 in Rain Rain
2:52 PM 64.9 °F 64.9 °F 100% 29.97 in 2.0 mi East 11.5 mph - 0.11 in Rain Rain
2:58 PM 64.4 °F 64.4 °F 100% 29.97 in 3.0 mi ENE 9.2 mph - 0.01 in Rain Light Rain
3:04 PM 66.2 °F 66.2 °F 100% 29.97 in 6.0 mi ENE 8.1 mph - 0.01 in Rain Light Rain
3:19 PM 64.4 °F 64.4 °F 100% 29.97 in 1.8 mi NNE 5.8 mph - 0.07 in Rain Rain
3:36 PM 66.2 °F 66.2 °F 100% 29.97 in 3.0 mi NNE 8.1 mph - 0.14 in Rain Light Rain
3:52 PM 66.0 °F 66.0 °F 100% 29.96 in 10.0 mi ENE 10.4 mph - 0.14 in Rain Light Rain
4:30 PM 66.2 °F 66.2 °F 100% 29.97 in 7.0 mi NE 8.1 mph - 0.02 in Rain , Thunderstorm Light Rain
4:48 PM 66.2 °F 66.2 °F 100% 29.96 in 6.0 mi ENE 6.9 mph - 0.03 in Rain Light Rain
4:52 PM 66.0 °F 66.0 °F 100% 29.96 in 6.0 mi ENE 6.9 mph - 0.04 in Rain Light Rain
5:07 PM 66.2 °F 66.2 °F 100% 29.96 in 2.0 mi East 9.2 mph - 0.07 in Rain Heavy Rain
5:15 PM 66.2 °F 66.2 °F 100% 29.96 in 1.0 mi East 6.9 mph - 0.22 in Rain Heavy Rain
5:23 PM 66.2 °F 66.2 °F 100% 29.96 in 0.8 mi East 6.9 mph - 0.38 in Rain Heavy Rain
5:35 PM 66.2 °F 66.2 °F 100% 29.96 in 1.8 mi ENE 5.8 mph - 0.44 in Rain Rain
5:42 PM 66.2 °F 66.2 °F 100% 29.96 in 2.5 mi NE 4.6 mph - 0.45 in Rain Rain
5:52 PM 66.9 °F 66.9 °F 100% 29.94 in 1.2 mi ESE 6.9 mph - 0.54 in Rain Heavy Rain
6:06 PM 66.2 °F 66.2 °F 100% 29.94 in 2.5 mi NE 6.9 mph - 0.04 in Rain Rain
6:13 PM 66.2 °F 66.2 °F 100% 29.93 in 4.0 mi East 4.6 mph - 0.05 in Rain Light Rain
6:40 PM 66.2 °F 66.2 °F 100% 29.95 in 8.0 mi NNE 4.6 mph - 0.06 in Rain Light Rain
6:52 PM 68.0 °F 68.0 °F 100% 29.95 in 10.0 mi NE 4.6 mph - 0.07 in Rain Light Rain
7:26 PM 68.0 °F 68.0 °F 100% 29.95 in 10.0 mi NE 6.9 mph - 0.00 in   Overcast
7:50 PM 68.0 °F 68.0 °F 100% 29.96 in 10.0 mi ENE 5.8 mph - 0.00 in Rain Light Rain
7:52 PM 68.0 °F 68.0 °F 100% 29.95 in 10.0 mi ENE 5.8 mph - 0.00 in Rain Light Rain
8:52 PM 69.1 °F 69.1 °F 100% 29.94 in 10.0 mi NE 5.8 mph - 0.00 in Rain Light Rain
9:52 PM 69.1 °F 69.1 °F 100% 29.95 in 10.0 mi NE 6.9 mph - 0.01 in   Overcast
10:25 PM 69.8 °F 69.8 °F 100% 29.97 in 7.0 mi ENE 8.1 mph - N/A   Overcast
10:52 PM 70.0 °F 70.0 °F 100% 29.96 in 5.0 mi ENE 6.9 mph - N/A   Overcast
11:52 PM 70.0 °F 70.0 °F 100% 29.97 in 4.0 mi NE 3.5 mph - N/A   Overcast